Reflectivity
-20 -20 -20 -20 24 13 -20 -20 -20 -20 -20 -20 16 24 35 -20 -20 -20 -20 -20 -20 -20 -20 -20 -20 -20 -9 -20 -20 -20 -20 -20 -20 -20 -20 -20 -20 -20 -20 -20 -20 -20 -20 -20
-20 -20 -20 -20 -20 -20 -20 -20 -5 -20 -20 -20 -17 6 -13 -20 -20 -20 -20 -20 -20 -20 -20 -20 -20 -20 -20 -20 -20 -20 -20 -20 -20 -20 -20 -20 -20 -20 -20 -14 -15 -5 -19 -20
-20 -20 -20 -20 -20 -20 -20 -20 -13 -20 -20 -20 -20 -7 7 -20 -20 -20 -20 -20 -20 -20 -20 -20 -20 -20 -20 -20 -20 -20 -20 -20 -20 -20 -20 -20 -20 -17 -20 -13 37 46 39 -10
-20 -20 -20 -20 -20 -20 -20 -20 -20 -20 -20 -20 -20 18 -18 -20 -20 -20 -20 -20 -20 -20 -20 -20 -20 -20 -20 -20 -20 -20 -20 -20 -20 -20 -20 -20 -20 -20 -20 6 35 39 26 -10
-20 -20 -20 -20 -20 -20 -20 -20 -20 -20 -20 -18 -0 7 7 -7 -15 -20 -20 -20 -20 -20 -20 -20 -20 -20 -20 -20 -20 -20 -20 -20 -20 -20 -20 -20 -20 -20 8 -20 -20 -13 -10 -19
-20 -20 -20 -20 -20 -20 -20 -20 -20 -20 -20 16 27 -20 -20 -20 -20 -20 -20 -20 -20 -20 -20 -20 -20 -20 -20 -20 -20 -20 -20 -20 -20 -20 -20 -20 -20 -20 -20 -20 -20 -20 -20 -20
-20 -20 -20 -20 -20 -20 -20 -20 -20 -20 12 29 3 -20 -20 -20 -20 -20 -20 -20 -20 -20 -20 -8 -20 -20 -20 -20 -20 -20 -20 -20 -20 -20 -20 -20 -20 -20 -20 -20 -20 -20 -20 -20
-20 -20 -20 -20 -20 -20 -20 -20 -20 -20 7 27 11 -18 -20 -20 -20 -20 -20 -20 -20 -20 -20 -20 -20 -20 -20 -20 -20 -20 -20 -20 -20 -20 -20 -20 -20 -20 -20 -20 -20 -20 28 -20
-20 -20 -20 -20 -20 -20 -20 -20 -20 -20 -20 -20 4 13 -20 -20 -20 -20 -20 -20 -20 -20 -20 -20 -20 -20 -20 -20 -20 -20 -20 -20 -20 -20 -20 -20 -20 -20 -20 -20 -20 -20 -20 -20
-20 -20 -20 -20 -20 -20 -20 -20 -20 -20 -20 -20 -15 -5 -20 -20 -20 -20 -20 -20 -20 -20 -20 -20 -20 -20 -20 -20 -20 -20 -20 -20 -20 -20 -20 -20 -20 -20 -20 -20 -20 -20 -20 -20
-20 -20 -20 -20 -20 -20 -20 -20 -20 -20 -20 -14 -13 24 -20 -20 -20 -20 -20 -20 -20 -20 -20 -20 -20 -20 -20 -20 -20 -20 -20 -20 -20 -20 -20 -20 -20 -20 -20 -20 -20 -20 -20 -20
-20 -20 -20 -20 -20 -20 -20 -20 -20 -20 -20 -20 -19 11 -1 -20 -20 -20 -20 -20 -20 -20 -20 -20 -20 -20 -20 -20 -20 -20 -20 -20 -20 -20 -20 -20 -20 -20 -20 -20 -20 -20 -20 -20
-20 -20 -20 -20 -20 -20 -20 -20 -20 -20 -20 -20 -20 8 11 -20 -20 -20 -20 -20 -20 -20 -20 -20 -20 -20 -20 -20 -20 -20 -20 -20 -20 -20 -20 -20 -20 -20 -20 -20 -20 -20 -20 -20
-20 -20 -20 -20 -20 -20 -0 -20 -20 -20 -20 -20 -20 6 -5 -19 -20 -20 -20 -20 -20 -20 -20 -20 -20 -20 -20 -20 -20 -20 -20 -20 -20 -20 -20 -20 -20 -20 -20 -20 -20 -20 -20 -20
-20 -20 -20 -20 -20 -20 -11 -20 -20 -20 -20 -20 1 16 20 -20 -20 -20 -20 -20 -20 -20 -20 -20 -20 -20 -20 -20 -20 -20 -20 -20 -20 -20 -20 -20 -20 -20 -20 -20 -20 -20 12 14
-20 -20 -20 -20 -20 -20 -19 -20 -20 -20 -20 -20 -15 9 -15 -5 -20 -20 -20 -20 -20 -20 -20 -20 -20 -20 -20 -20 -20 -20 -20 -20 -20 -20 -20 -20 -20 -20 -20 -19 -19 -8 -2 -10
-20 -20 -18 12 -6 -20 -20 -20 -20 -20 -20 -20 -20 13 33 4 -19 -20 -20 -20 -20 -20 -20 -20 -20 -20 -20 -20 -20 -20 -20 -20 -20 -20 -20 -20 -20 -20 -7 -20 -20 -20 -4 13
-20 12 0 -20 -20 -20 -20 -20 -20 -20 -20 -20 -20 7 13 -11 -20 -20 -20 -20 -20 -20 -20 -20 -20 -20 -20 -20 -20 -20 -20 -20 -20 -20 -20 -20 -20 -20 -20 -20 -20 -20 -9 22
-20 -20 -20 -20 4 -20 -20 -0 -7 -20 -15 -3 -9 -3 -20 -20 -20 -20 -20 -20 -20 -20 -20 -20 -20 -20 -20 -20 -20 -20 -20 -20 -20 -20 -20 -20 -19 -20 -20 -20 -20 -17 -12 16
-19 -20 -20 -20 -9 32 -17 -17 -16 -18 -3 16 8 11 17 17 7 -20 -20 -20 -20 -20 -20 -20 -20 -20 -20 -20 -20 -20 -20 -20 -20 -20 -4 -20 -20 -20 -20 -16 -20 -19 -20 -20
12 -4 -20 -16 -20 -20 17 32 26 23 -1 14 30 31 -17 37 32 7 -13 -20 15 10 -18 -20 -20 -20 -20 -20 -20 -20 -20 -20 -20 -20 -20 -20 -20 -20 -20 -20 -20 -20 6 4
21 -11 -20 -17 -3 -20 23 26 -18 1 11 24 -16 39 1 -19 -11 6 -6 -20 -20 -12 -20 -20 -20 -20 -20 -20 -20 -20 -20 -20 -20 -20 -20 -20 -7 -16 -19 -20 -20 -20 -0 -5
-8 1 24 20 -20 -20 27 30 0 40 42 14 15 20 15 -5 -20 -20 -20 -20 -20 -20 -20 -20 -20 -20 -20 -20 -20 -20 -20 -20 -20 34 -1 4 4 -10 -20 -16 -20 -15 0 -20
-1 1 0 42 31 16 18 9 -16 38 40 29 0 -20 -3 -2 -20 -20 -20 -20 -20 -20 -20 -20 -20 -20 -20 -20 -20 -20 -18 -20 5 11 -10 -20 -20 -20 -20 -20 -17 3 -17 -4
16 27 25 10 29 25 7 20 23 15 2 2 -17 -20 -20 -20 -20 -20 -20 -20 -20 -20 -20 -20 -20 -20 -20 -20 -20 -2 -11 -20 -15 -17 -4 -15 -20 -20 7 -20 -19 -20 -4 -20
3 24 15 -17 -19 -16 14 46 25 -13 -20 -20 -20 -20 -20 -20 -20 -20 -20 -20 -20 -20 -20 -20 -20 -20 -20 -20 -9 -6 -3 -20 -17 -20 -16 -3 -13 -20 -16 -15 -19 8 3 12
Wind_Speed
15 12 14 19 1 26 24 14 10 9 5 4 8 23 6 17 15 18 17 19 18 16 15 17 16 16 11 15 15 10 9 7 7 7 6 5 4 3 3 4 8 5 2 3
15 16 15 16 17 7 12 13 4 5 6 1 11 12 13 11 16 15 16 18 20 18 17 17 17 16 20 17 16 13 9 9 7 5 5 6 5 2 3 4 4 4 4 4
17 18 16 10 14 8 14 14 10 7 10 5 6 3 11 10 15 14 18 16 19 19 19 18 16 17 19 17 17 15 11 12 9 7 6 4 3 2 3 3 12 11 16 3
15 18 16 13 10 10 14 10 11 9 11 10 10 5 11 14 14 17 15 17 18 21 18 18 19 17 19 19 18 17 14 12 11 9 6 6 4 4 5 4 10 15 16 3
15 16 14 13 18 11 15 12 10 14 14 18 14 9 9 8 12 17 17 17 18 19 20 20 20 17 14 18 16 17 15 12 10 11 9 6 6 5 4 8 9 8 5 5
16 19 8 11 12 15 15 15 14 16 15 3 22 20 7 6 9 18 17 16 17 17 20 16 19 18 15 15 15 16 17 14 12 12 12 9 5 8 3 2 6 5 5 5
18 19 16 12 13 16 15 15 11 14 13 2 23 17 10 11 10 4 15 14 16 15 15 16 16 17 16 16 16 14 18 15 15 12 12 11 9 7 5 4 3 4 5 5
14 14 22 17 15 15 13 16 11 17 15 9 24 5 8 10 14 6 5 14 11 17 17 19 18 15 17 16 19 17 19 16 15 13 12 10 10 6 6 5 4 4 4 6
16 15 4 1 10 11 14 13 17 17 17 13 2 9 12 16 14 9 13 10 11 14 13 13 18 16 15 15 17 16 19 16 16 15 12 10 10 10 8 7 6 4 6 7
12 15 14 5 9 8 13 15 13 9 10 10 5 5 11 14 12 8 11 11 12 12 14 15 12 16 15 16 15 16 18 18 16 14 13 11 12 12 9 7 7 7 6 9
9 12 17 10 9 12 13 14 15 17 13 8 9 4 14 11 6 10 11 9 11 11 13 12 13 10 14 14 16 17 16 17 16 15 14 13 12 13 12 9 8 7 5 11
8 13 12 18 12 15 13 16 16 12 15 12 10 6 12 11 8 9 11 12 10 8 9 11 13 11 10 12 13 14 15 15 14 14 13 13 13 13 13 12 9 8 6 11
11 8 10 15 14 16 8 11 13 14 15 16 12 7 12 11 7 9 9 8 6 5 6 8 13 13 8 10 9 9 10 12 14 15 14 15 14 13 13 13 11 10 9 11
8 15 18 11 13 12 16 17 13 18 11 13 16 16 13 11 9 11 10 6 3 3 4 3 5 7 11 7 7 8 10 12 13 15 15 16 15 14 13 12 12 14 12 11
10 16 18 18 18 18 12 14 12 13 17 17 4 16 13 13 10 11 11 10 6 3 6 8 7 4 6 8 7 6 8 12 14 14 15 15 13 13 11 10 11 9 10 9
9 15 16 19 17 18 18 17 16 16 15 15 18 15 8 15 10 10 11 12 10 8 8 10 6 11 7 8 7 7 7 8 12 14 13 11 9 9 7 4 7 8 6 2
8 13 17 15 9 15 13 13 17 28 16 15 16 19 25 12 13 9 11 12 11 9 9 8 8 5 11 12 11 11 10 8 8 8 9 7 8 8 7 17 14 11 12 15
17 17 14 14 4 11 10 23 20 24 15 16 7 15 13 14 16 9 8 10 9 8 8 7 9 6 7 9 17 15 14 11 8 7 7 7 9 14 15 15 13 12 13 13
8 8 8 5 9 14 16 4 9 15 27 12 17 8 13 8 18 11 9 9 9 9 9 10 10 8 8 10 9 11 10 10 9 8 7 8 17 16 15 16 16 11 4 4
17 9 1 9 4 14 7 18 9 15 6 26 11 16 19 24 12 9 12 10 9 9 9 9 11 12 11 8 3 8 8 8 7 8 9 13 14 15 13 12 7 2 2 5
6 5 3 6 4 10 14 22 7 3 5 10 18 11 14 6 10 13 11 3 5 5 8 10 10 9 7 6 6 5 4 6 11 11 11 11 11 12 9 5 2 0 2 5
2 5 5 3 5 9 20 6 3 11 7 3 8 28 10 3 5 8 7 4 5 5 6 6 7 8 10 9 6 11 12 8 8 10 11 11 11 8 6 6 6 5 7 9
1 2 5 7 4 4 6 23 3 9 16 13 14 5 6 6 5 4 3 0 4 4 3 4 5 7 7 8 8 9 8 8 7 8 9 8 8 6 5 8 8 7 7 7
3 3 5 7 3 7 11 21 6 18 10 8 6 4 5 7 8 8 6 6 5 6 6 6 4 6 4 5 8 8 6 6 6 8 9 7 6 5 7 8 7 7 8 8
6 2 10 18 12 6 14 20 8 8 6 5 5 6 7 9 10 10 10 9 4 3 3 3 3 4 6 4 6 5 6 7 5 3 5 4 7 6 8 4 3 6 6 8
14 8 12 4 9 5 9 15 14 10 9 7 8 8 7 7 9 8 7 7 9 1 4 4 3 1 4 6 6 6 6 7 7 6 4 6 6 7 6 5 5 12 6 10
Wind_Direction
243 239 246 267 105 195 215 282 303 64 105 324 225 45 210 166 192 173 175 175 182 198 183 164 178 165 155 148 148 170 166 143 153 154 197 231 225 194 198 201 208 187 184 208
252 242 250 285 300 346 302 290 317 304 23 349 14 140 206 190 194 186 181 174 177 196 191 169 177 166 162 157 154 156 170 156 173 196 201 203 227 194 175 191 107 23 246 184
245 259 247 226 268 270 253 263 22 344 310 322 347 84 257 233 189 209 182 182 176 186 198 180 185 182 158 162 157 159 171 165 179 208 208 237 312 142 153 113 74 316 284 151
250 261 269 281 276 291 279 0 351 303 291 283 169 172 237 217 182 194 210 182 184 181 194 177 188 194 179 160 162 161 168 169 181 214 223 204 205 230 212 139 147 200 236 193
263 243 262 271 273 263 262 323 332 291 283 271 173 243 153 139 189 192 201 200 193 181 179 184 188 189 202 165 169 161 165 176 185 192 227 205 223 239 236 129 136 164 174 117
257 279 284 285 286 267 276 301 284 271 256 70 310 304 152 170 155 185 186 196 192 184 173 190 176 185 197 175 167 168 167 177 189 185 204 236 230 240 290 175 159 168 155 163
251 245 250 232 259 262 236 248 272 270 229 253 243 257 102 83 64 40 159 168 187 179 181 166 183 181 183 186 176 177 170 175 179 199 192 213 236 219 252 268 174 140 150 166
244 236 207 215 221 267 263 233 258 297 311 191 225 136 102 95 101 85 104 146 187 178 189 179 178 183 182 186 178 187 166 174 178 186 205 196 211 227 218 211 256 218 158 160
278 277 267 334 190 228 260 224 245 278 302 298 16 25 123 105 104 121 114 128 163 182 193 181 171 175 176 182 178 183 160 173 177 182 196 199 195 214 213 225 211 242 117 131
245 271 279 152 234 238 274 277 269 224 259 278 254 352 110 98 113 120 138 147 157 183 189 175 196 177 178 182 184 181 164 173 179 185 189 197 200 203 226 206 196 211 180 146
268 269 270 266 179 248 225 238 258 280 280 286 297 82 110 112 119 121 108 135 139 164 183 189 174 209 178 185 179 184 184 178 181 184 182 192 199 202 206 228 204 193 156 141
229 267 261 251 245 236 234 254 215 239 252 275 308 163 113 115 117 112 92 69 95 129 167 185 165 193 184 187 182 186 183 183 175 179 175 191 196 198 200 208 206 183 182 154
314 243 249 263 269 232 211 260 274 262 247 269 270 82 86 105 94 69 87 91 108 82 147 186 179 174 190 186 186 177 177 181 174 174 181 188 200 199 203 199 205 181 179 166
306 280 293 279 253 303 216 203 231 266 268 250 256 155 155 116 110 110 108 105 66 145 150 282 328 170 172 179 165 167 170 175 173 179 186 193 195 202 204 199 194 184 178 169
254 265 274 282 288 314 313 280 218 223 260 265 42 112 115 116 110 88 91 81 73 164 222 202 206 265 153 166 162 159 177 172 175 185 193 196 197 196 198 204 185 166 151 157
276 269 273 288 329 349 313 308 271 282 229 269 278 130 93 123 97 102 88 82 70 33 350 335 226 186 197 169 185 181 182 188 182 193 200 190 187 181 195 187 134 77 123 130
269 290 300 295 8 329 292 340 344 323 271 241 246 111 149 125 96 72 90 86 67 44 22 345 313 294 193 192 186 194 198 195 201 192 194 173 168 162 126 97 99 103 98 114
286 272 268 291 327 252 293 334 334 342 300 249 167 105 94 103 103 96 79 86 73 49 37 12 331 310 287 240 194 193 190 193 197 204 176 169 159 107 113 114 125 144 166 168
23 16 332 319 297 332 301 325 9 358 317 310 62 73 114 141 125 108 79 58 60 53 32 23 358 334 3 359 336 151 162 165 182 191 164 169 117 130 132 136 157 165 154 163
315 57 181 313 317 221 233 318 24 10 347 343 349 67 7 326 130 58 31 35 55 41 39 31 23 10 32 340 88 120 134 146 161 172 108 120 134 143 154 152 149 92 141 132
326 304 17 308 320 299 108 228 147 45 284 326 348 118 136 215 44 162 144 120 57 31 29 69 28 34 22 351 13 51 128 96 83 106 119 126 131 133 142 139 169 124 153 162
358 302 281 277 254 252 2 267 241 288 168 291 10 300 60 24 31 60 72 44 30 35 41 22 75 33 21 8 41 67 80 94 107 120 129 134 118 116 128 118 109 121 136 136
141 182 336 276 285 255 311 287 154 46 209 174 198 288 12 334 347 358 346 322 325 324 79 1 38 74 29 13 34 89 113 122 124 128 134 134 129 135 129 113 131 144 148 143
20 263 228 236 257 316 314 279 117 323 164 62 69 352 4 356 344 331 320 333 343 351 27 58 13 72 66 35 60 81 105 130 144 138 121 119 136 126 147 147 165 165 167 173
191 147 251 258 110 43 324 329 308 37 17 1 328 340 360 352 349 345 332 323 293 336 101 76 55 72 92 85 89 116 120 132 128 127 161 181 132 151 145 158 185 173 184 178
165 188 254 269 133 160 189 214 306 304 310 309 306 319 316 325 315 309 311 315 320 166 77 104 76 78 128 139 136 139 148 155 163 183 210 215 155 158 154 147 136 44 94 92